[[{"header":{"parameterUnit":"m.s-1","parameterCategory":1,"la1":30.2991,"la2":30.254,"lo1":-89.0895,"lo2":-89.0444,"dy":0.0017,"dx":0.0017,"nx":28,"ny":28,"refTime":"2024-02-11T09:00:00:Z","depth":0,"parameterNumber":2,"parameterNumberName":"U-component_of_WINDS"},"data":[0,0,0,0,0,0,0,0,0,0,0,0,0,0,0,0,0,0,0,0,0,0,0,0,0,0,0,0,0,0,0,0,0,0,0,0,0,0,0,0,0,0,0,0,0,0,0,0,0,0,0,0,0,0,0,0,0,0,-1.6538,-1.6539,0,-1.6607,-1.6608,-1.6609,-1.6631,-1.663,-1.663,-1.663,-1.6699,-1.6701,-1.6703,0,0,0,0,0,0,0,0,0,0,0,0,0,-1.6425,-1.6427,-1.6538,-1.6539,-1.654,-1.6607,-1.6608,-1.6609,-1.6631,-1.663,-1.663,-1.663,-1.6698,-1.67,-1.6703,0,0,0,0,0,0,0,0,0,0,0,0,0,-1.6482,-1.6427,-1.6538,-1.6559,-1.6562,-1.6607,-1.6608,-1.6609,-1.6631,-1.663,-1.663,-1.663,-1.6697,-1.67,-1.6703,-1.6732,0,0,-1.6713,-1.6714,0,0,0,0,0,0,0,0,-1.6478,-1.6486,-1.6555,-1.6558,-1.6561,-1.661,-1.6593,-1.665,-1.6631,-1.6605,-1.663,-1.6629,-1.6669,-1.6675,-1.6689,-1.6735,-1.6738,-1.6713,-1.6715,-1.6717,-1.6717,0,0,0,0,0,0,0,-1.6475,-1.6483,-1.6565,-1.6556,-1.656,-1.6565,-1.6572,-1.6604,-1.6639,-1.6607,-1.6609,-1.6617,-1.6671,-1.6686,-1.669,-1.6739,-1.6713,-1.6716,-1.6718,-1.6719,-1.6811,-1.6812,0,0,0,0,0,0,-1.6467,-1.648,-1.6563,-1.6568,-1.6518,-1.6567,-1.6576,-1.6595,-1.6638,-1.6645,-1.6617,-1.6617,-1.668,-1.6687,-1.6693,-1.6729,-1.6717,-1.672,-1.6721,-1.6811,-1.6812,-1.6812,0,0,0,0,0,0,-1.6465,-1.6475,-1.6561,-1.6524,-1.6535,-1.6569,-1.6591,-1.6596,-1.6611,-1.6646,-1.6652,-1.6626,-1.668,-1.6688,-1.6722,-1.6731,-1.6721,-1.6724,-1.681,-1.6811,-1.6812,-1.68,0,0,0,0,0,0,-1.6461,-1.6473,-1.6485,-1.6524,-1.6537,-1.6589,-1.6591,-1.6598,-1.6616,-1.6618,-1.6656,-1.6662,-1.6681,-1.6717,-1.6725,-1.6735,-1.6726,-1.681,-1.6811,-1.6812,-1.68,-1.6801,-1.6801,0,0,0,0,0,-1.6457,-1.6479,-1.6486,-1.6496,-1.6553,-1.6589,-1.6597,-1.6619,-1.6617,-1.6629,-1.6651,-1.666,-1.6729,-1.672,-1.673,-1.6741,-1.6809,-1.681,-1.6812,-1.68,-1.6801,-1.6801,0,0,0,0,0,0,-1.644,-1.6485,-1.6492,-1.6528,-1.6555,-1.6593,-1.6609,-1.6619,-1.6646,-1.6646,-1.6672,-1.668,-1.6711,-1.673,-1.6719,-1.677,-1.6769,-1.6773,-1.6757,-1.6758,-1.6759,-1.6754,-1.6729,0,0,0,0,0,-1.644,-1.6467,-1.6504,-1.6532,-1.6545,-1.6574,-1.6591,-1.6606,-1.6634,-1.6646,-1.6671,-1.6698,-1.6725,-1.6743,-1.677,-1.6803,-1.6811,-1.6815,-1.6816,-1.6816,-1.6818,-1.6836,-1.6838,-1.6816,-1.6816,-1.6816,0,0,-1.6441,-1.6469,-1.6484,-1.6529,-1.6552,-1.6578,-1.6584,-1.6612,-1.6631,-1.665,-1.6683,-1.6702,-1.6734,-1.6767,-1.6782,-1.6783,-1.6826,-1.6818,-1.6818,-1.682,-1.6837,-1.6839,-1.6841,-1.6817,-1.6817,-1.6817,0,0,-1.6456,-1.648,-1.6505,-1.6528,-1.6562,-1.6581,-1.6587,-1.6624,-1.6637,-1.6671,-1.6685,-1.6709,-1.6756,-1.6778,-1.6795,-1.6818,-1.6827,-1.6826,-1.6829,-1.6846,-1.6847,-1.6849,-1.6856,-1.6859,-1.6828,-1.6828,-1.6828,0,-1.6453,-1.6493,-1.6517,-1.6544,-1.6562,-1.6581,-1.6606,-1.6626,-1.6668,-1.668,-1.668,-1.6739,-1.6762,-1.68,-1.6805,-1.6819,-1.6826,-1.6821,-1.6845,-1.6847,-1.6849,-1.6856,-1.6859,-1.6828,-1.6828,-1.6828,-1.6828,0,-1.6487,-1.6515,-1.6531,-1.657,-1.6591,-1.6617,-1.6643,-1.6662,-1.6674,-1.6693,-1.6726,-1.6755,-1.6788,-1.6798,-1.681,-1.6837,-1.6836,-1.684,-1.684,-1.685,-1.6857,-1.686,-1.6827,-1.6827,-1.6827,-1.6827,0,0,-1.6493,-1.6544,-1.655,-1.6568,-1.6606,-1.6628,-1.6654,-1.6687,-1.6702,-1.6729,-1.6751,-1.6791,-1.6795,-1.6814,-1.6829,-1.6844,-1.6859,-1.6847,-1.6848,-1.6847,-1.689,-1.6886,-1.6889,-1.6866,-1.6866,-1.6867,-1.6887,0,-1.6512,-1.656,-1.6581,-1.662,-1.6645,-1.6663,-1.6686,-1.6711,-1.673,-1.6754,-1.6774,-1.6801,-1.6805,-1.6817,-1.6832,-1.6854,-1.6868,-1.6853,-1.6886,-1.6887,-1.6877,-1.6892,-1.6889,-1.6906,-1.689,-1.689,-1.6891,0,-1.6541,-1.6569,-1.6609,-1.6644,-1.6656,-1.6676,-1.6707,-1.673,-1.6759,-1.6772,-1.6793,-1.6808,-1.6835,-1.6833,-1.6871,-1.686,-1.6875,-1.6887,-1.6889,-1.6892,-1.6889,-1.6895,-1.6912,-1.6914,-1.6895,-1.6895,-1.6895,0,-1.654,-1.6587,-1.6618,-1.6632,-1.6674,-1.6688,-1.6706,-1.6735,-1.6753,-1.678,-1.6792,-1.6822,-1.6838,-1.686,-1.6882,-1.6879,-1.6917,-1.6917,-1.6928,-1.6927,-1.6935,-1.6934,-1.6953,-1.6945,-1.6945,-1.6945,-1.6945,0,-1.6559,-1.6582,-1.6618,-1.6636,-1.6663,-1.6688,-1.6714,-1.6733,-1.6758,-1.678,-1.6798,-1.6818,-1.6845,-1.6869,-1.6886,-1.6914,-1.6922,-1.6932,-1.6936,-1.693,-1.6929,-1.694,-1.6939,-1.6946,-1.6945,-1.6945,-1.6945,0,-1.6562,-1.6586,-1.662,-1.6657,-1.6667,-1.6685,-1.6717,-1.6735,-1.6754,-1.6782,-1.679,-1.682,-1.6848,-1.6872,-1.691,-1.6921,-1.695,-1.6955,-1.694,-1.6942,-1.6951,-1.695,-1.6978,-1.6982,-1.6972,-1.6972,-1.6972,0,-1.6572,-1.6591,-1.6629,-1.6646,-1.6663,-1.6689,-1.6708,-1.6732,-1.675,-1.6785,-1.6799,-1.6829,-1.6854,-1.6899,-1.6923,-1.6952,-1.6958,-1.6965,-1.6962,-1.6955,-1.6957,-1.6955,-1.6957,-1.6965,-1.6965,-1.6965,-1.6965,0,-1.6586,-1.6598,-1.6624,-1.6654,-1.6675,-1.67,-1.6726,-1.6738,-1.6767,-1.6786,-1.6816,-1.6835,-1.6874,-1.6903,-1.6934,-1.6952,-1.6963,-1.6966,-1.697,-1.6964,-1.6954,-1.6959,-1.694,-1.6966,-1.6966,-1.6965,-1.6965,-1.6965,-1.6593,-1.661,-1.664,-1.6668,-1.669,-1.6713,-1.6732,-1.6753,-1.6779,-1.6812,-1.6825,-1.6855,-1.6883,-1.6926,-1.6944,-1.6968,-1.6969,-1.6975,-1.6976,-1.6977,-1.6976,-1.6951,-1.6973,-1.6974,-1.6974,-1.6974,-1.6974,0,-1.6608,-1.6628,-1.6654,-1.6689,-1.6711,-1.672,-1.6748,-1.6766,-1.6792,-1.6818,-1.6842,-1.6876,-1.6904,-1.6931,-1.6961,-1.6974,-1.698,-1.6981,-1.698,-1.6984,-1.6973,-1.6967,-1.6976,-1.6976,-1.6976,-1.6976,-1.6976,-1.6976,-1.6618,-1.6648,-1.6662,-1.6702,-1.6722,-1.6752,-1.6767,-1.6788,-1.6809,-1.6846,-1.6869,-1.6887,-1.6913,-1.6945,-1.6971,-1.6978,-1.6988,-1.6987,-1.6996,-1.6985,-1.6984,-1.6984,-1.6978,-1.6989,-1.6989,-1.7004,-1.7004,-1.7004]},{"header":{"parameterUnit":"m.s-1","parameterCategory":1,"la1":30.2991,"la2":30.254,"lo1":-89.0895,"lo2":-89.0444,"dy":0.0017,"dx":0.0017,"nx":28,"ny":28,"refTime":"2024-02-11T09:00:00:Z","depth":0,"parameterNumber":3,"parameterNumberName":"V-component_of_WINDS"},"data":[0,0,0,0,0,0,0,0,0,0,0,0,0,0,0,0,0,0,0,0,0,0,0,0,0,0,0,0,0,0,0,0,0,0,0,0,0,0,0,0,0,0,0,0,0,0,0,0,0,0,0,0,0,0,0,0,0,0,5.5734,5.5736,0,5.5971,5.5974,5.5976,5.6035,5.6033,5.6031,5.603,5.627,5.6278,5.6285,0,0,0,0,0,0,0,0,0,0,0,0,0,5.5329,5.5336,5.5733,5.5736,5.5739,5.5971,5.5974,5.5977,5.6035,5.6033,5.6031,5.6029,5.6268,5.6277,5.6286,0,0,0,0,0,0,0,0,0,0,0,0,0,5.5529,5.5338,5.5733,5.5796,5.5804,5.597,5.5974,5.5978,5.6035,5.6033,5.6031,5.6028,5.6264,5.6276,5.6287,5.6406,0,0,5.6323,5.6328,0,0,0,0,0,0,0,0,5.5518,5.5544,5.5784,5.5792,5.5801,5.5971,5.5919,5.6122,5.6036,5.5947,5.603,5.6027,5.6172,5.6191,5.6241,5.6418,5.6428,5.6324,5.6332,5.6337,5.634,0,0,0,0,0,0,0,5.5504,5.5534,5.5827,5.5787,5.5798,5.5812,5.5838,5.5958,5.607,5.5955,5.596,5.5987,5.6176,5.6229,5.6247,5.6431,5.6324,5.6334,5.6342,5.6346,5.6722,5.6724,0,0,0,0,0,0,5.5479,5.5522,5.582,5.5834,5.5651,5.5821,5.585,5.5919,5.6069,5.6089,5.5989,5.5989,5.6211,5.6233,5.6256,5.6408,5.6336,5.6347,5.6354,5.6719,5.6722,5.6725,0,0,0,0,0,0,5.547,5.5505,5.581,5.568,5.572,5.5831,5.5907,5.5925,5.5978,5.6094,5.6114,5.6023,5.621,5.6239,5.637,5.6417,5.6353,5.6363,5.6715,5.672,5.6724,5.6712,0,0,0,0,0,0,5.5458,5.5502,5.5548,5.568,5.5726,5.5921,5.591,5.5931,5.5998,5.6001,5.6131,5.6151,5.621,5.6352,5.6381,5.6432,5.6373,5.6711,5.6717,5.6722,5.6708,5.6715,5.6721,0,0,0,0,0,5.5444,5.5534,5.555,5.5586,5.5787,5.5923,5.5949,5.6017,5.6002,5.605,5.6125,5.6147,5.6406,5.6365,5.6398,5.6453,5.6709,5.6716,5.6722,5.6706,5.6714,5.6721,0,0,0,0,0,0,5.5402,5.5552,5.5572,5.5707,5.5802,5.5933,5.5995,5.6023,5.6123,5.6121,5.6199,5.6228,5.6354,5.6416,5.6367,5.6578,5.6558,5.6571,5.6533,5.6542,5.6548,5.6532,5.6382,0,0,0,0,0,5.5409,5.5508,5.5633,5.574,5.5787,5.5883,5.5944,5.5988,5.6089,5.613,5.6214,5.6311,5.6415,5.6481,5.6583,5.6717,5.6748,5.6771,5.6778,5.6782,5.6794,5.6873,5.6886,5.6747,5.6747,5.6747,0,0,5.5424,5.5518,5.5575,5.5734,5.5813,5.5914,5.5916,5.6022,5.6098,5.6145,5.6275,5.6341,5.6454,5.6587,5.665,5.6643,5.6839,5.6791,5.6793,5.6803,5.6881,5.6894,5.6905,5.6751,5.6751,5.675,0,0,5.5503,5.5583,5.5683,5.5763,5.5883,5.5946,5.597,5.6097,5.6143,5.6275,5.6314,5.6404,5.6581,5.6661,5.6725,5.6837,5.6862,5.6867,5.6901,5.6977,5.6988,5.6998,5.7041,5.7055,5.6878,5.6878,5.6878,0,5.5506,5.566,5.5731,5.5837,5.5906,5.5956,5.6059,5.6132,5.6278,5.6325,5.6315,5.654,5.6619,5.6774,5.6802,5.685,5.6882,5.6854,5.6981,5.6992,5.7002,5.7044,5.706,5.6878,5.6878,5.6878,5.6878,0,5.566,5.5766,5.5833,5.5976,5.6053,5.6156,5.6242,5.6312,5.6349,5.6414,5.6549,5.6646,5.677,5.6809,5.6845,5.697,5.6962,5.6965,5.6946,5.7014,5.7056,5.7072,5.6879,5.6878,5.6878,5.6878,0,0,5.572,5.5902,5.5926,5.5993,5.6129,5.6213,5.6319,5.6442,5.6502,5.66,5.6693,5.6842,5.6847,5.6919,5.6965,5.7031,5.7118,5.7027,5.7031,5.7043,5.7266,5.7265,5.7282,5.7135,5.7138,5.714,5.7257,0,5.5819,5.6012,5.6079,5.6239,5.6339,5.6388,5.6481,5.6575,5.6638,5.6733,5.6802,5.6909,5.6905,5.695,5.7017,5.7093,5.7164,5.7085,5.7223,5.7227,5.7196,5.7303,5.7302,5.7408,5.7273,5.7276,5.7278,0,5.596,5.6064,5.6234,5.6362,5.6406,5.6489,5.6609,5.6698,5.6806,5.6847,5.693,5.6971,5.7085,5.7058,5.7216,5.7161,5.7221,5.7267,5.7273,5.7291,5.7258,5.7327,5.7443,5.746,5.7303,5.7301,5.73,0,5.5991,5.6173,5.63,5.6355,5.6505,5.6563,5.6628,5.6734,5.6805,5.6909,5.6956,5.7071,5.7134,5.7222,5.7295,5.7267,5.7448,5.7426,5.7487,5.7486,5.7525,5.7522,5.7655,5.7558,5.7558,5.7557,5.7557,0,5.6096,5.6199,5.6316,5.6394,5.6512,5.6588,5.6702,5.677,5.6864,5.6957,5.7004,5.709,5.7179,5.7276,5.7332,5.7458,5.7485,5.7522,5.7537,5.752,5.7516,5.7563,5.7558,5.7562,5.7561,5.756,5.7559,0,5.6151,5.6234,5.6376,5.6508,5.6543,5.6624,5.6737,5.6815,5.6881,5.6998,5.7029,5.7132,5.725,5.733,5.7479,5.7518,5.7654,5.7665,5.7618,5.7626,5.7685,5.7679,5.7855,5.7884,5.7763,5.7764,5.7765,0,5.6214,5.6295,5.6437,5.6503,5.657,5.6675,5.6748,5.6826,5.6901,5.7032,5.7094,5.7215,5.7317,5.7502,5.759,5.7705,5.7722,5.7776,5.774,5.7722,5.7727,5.7723,5.7733,5.7782,5.7783,5.7784,5.7784,0,5.6319,5.6356,5.6461,5.658,5.6667,5.6764,5.6862,5.6913,5.7008,5.7089,5.7212,5.729,5.7445,5.7565,5.7689,5.7756,5.7788,5.7795,5.7816,5.7801,5.7772,5.7792,5.7637,5.7791,5.779,5.779,5.7789,5.7789,5.6383,5.6458,5.6571,5.6686,5.6769,5.686,5.6941,5.7018,5.7121,5.7254,5.7293,5.7421,5.7529,5.77,5.7769,5.787,5.7866,5.7895,5.7903,5.791,5.7912,5.7753,5.7892,5.7892,5.7892,5.7892,5.7892,0,5.6493,5.6568,5.6674,5.681,5.6902,5.6923,5.7033,5.7108,5.722,5.7319,5.7419,5.756,5.7678,5.7776,5.7897,5.7959,5.7977,5.7989,5.7987,5.8003,5.7907,5.7879,5.7973,5.7973,5.7973,5.7973,5.7973,5.7973,5.6561,5.6692,5.6743,5.6915,5.6989,5.7116,5.7178,5.7262,5.7342,5.7499,5.7598,5.7661,5.7761,5.789,5.7999,5.8025,5.8069,5.8079,5.8108,5.8018,5.8009,5.8,5.7974,5.8087,5.8087,5.8196,5.8197,5.8198]}]]